Flag for Canada Weather past 2 weeks in Surrey, British Columbia, Canada

Now
68 °F

Mild.


Feels Like: 68 °F
Forecast: 58 / 68 °F
Wind: 1 mph from Southeast

Location: P. Meadows Coastal Station

Current Time: Aug 27, 2014 at 10:57:07 PM

Latest Report: Aug 27, 2014 at 10:00 PM


Visibility: N/A

Pressure: 29.98 "Hg

Humidity: 75%

Dew point: 60 °F

Location of SurreyLocation

Historic Weather in Surrey — Graph

°F

Surrey temperature yesterday

Maximum temperature yesterday: 84 °F (at 5:00 PM)
Minimum temperature yesterday: 57 °F (at 5:00 AM)
Average temperature yesterday: 71 °F

Past Weeks' High & Low Weather Summary

 TemperatureHumidityPressure
High84 °F (Aug 26, 5:00 PM)100% (Aug 17, 1:00 AM)30.15 "Hg (Aug 17, 1:00 AM)
Low53 °F (Aug 22, 3:00 AM)32% (Aug 23, 6:00 PM)29.75 "Hg (Aug 19, 7:00 PM)
Average67 °F76%29.99 "Hg
* Reported Aug 12 9:00 PM — Aug 27 9:00 PM, Surrey, Weather by CustomWeather, © 2014

Note: Actual official high and low records may vary slightly from our data, if they occured in-between our weather recording intervals... More about our weather records

Advertising

Surrey weather history for previous 24 hours

 ConditionsComfort  
Time TempWeatherWind HumidityBarometerVisibility
9:00 PM
Aug 27
69 °FMild.1 mph72%29.98 "HgN/A
8:00 PM72 °FMild.2 mph62%29.97 "HgN/A
7:00 PM77 °FWarm.3 mph52%29.97 "HgN/A
6:00 PM80 °FWarm.5 mph50%29.98 "HgN/A
5:00 PM81 °FWarm.6 mph47%29.98 "HgN/A
4:00 PM82 °FWarm.6 mph47%29.99 "HgN/A
3:00 PM82 °FWarm.5 mph45%30.00 "HgN/A
2:00 PM81 °FWarm.5 mph47%30.01 "HgN/A
1:00 PM79 °FWarm.6 mph51%30.02 "HgN/A
12:00 PM78 °FWarm.2 mph56%30.03 "HgN/A
11:00 AM76 °FMild.2 mph58%30.03 "HgN/A
10:00 AM72 °FMild.2 mph67%30.03 "HgN/A
9:00 AM69 °FMild.No wind78%30.03 "HgN/A
8:00 AM64 °FMild.1 mph93%30.03 "HgN/A
7:00 AM61 °FCool.1 mph96%30.02 "HgN/A
6:00 AM60 °FCool.No wind96%30.01 "HgN/A
5:00 AM61 °FCool.1 mph97%30.00 "HgN/A
4:00 AM61 °FCool.No wind96%30.00 "HgN/A
3:00 AM62 °FCool.No wind93%29.99 "HgN/A
2:00 AM63 °FMild.No wind91%29.98 "HgN/A
1:00 AM65 °FMild.1 mph87%29.98 "HgN/A
12:00 AM66 °FMild.No wind85%29.98 "HgN/A
11:00 PM
Aug 26
67 °FMild.No wind77%29.98 "HgN/A
10:00 PM71 °FMild.1 mph73%29.97 "HgN/A
Weather by CustomWeather, © 2014

See weather overviewHow to use our weather pages